Liberia, Costa Rica

6:49 PM CST on September 23, 2017 (GMT -0600)
Daniel Oduber Quiros International

Weather History for MRLB - December, 2012

Change the Weather History Date:

Thursday, December 6, 2012

  Actual Average Record
Temperature  
Mean Temperature 78 °F -  
Max Temperature 90 °F 87 °F 93 °F (2000)
Min Temperature 66 °F 72 °F 66 °F (2005)
Cooling Degree Days 13    
Growing Degree Days 28 (Base 50)    
Moisture  
Dew Point 65 °F    
Average Humidity 57    
Maximum Humidity 94    
Minimum Humidity 37    
Precipitation  
Precipitation 0.00 in - - ()
Sea Level Pressure  
Sea Level Pressure 29.82 in    
Wind  
Wind Speed 5 mph ()    
Max Wind Speed 12 mph    
Max Gust Speed -    
Visibility 8.0 miles    
Events      
Averages and records for this station are not official NWS values.
T = Trace of Precipitation, MM = Missing Value Source: Averaged Metar Reports

Daily Weather History Graph

Daily Weather History Graph

Search for Another Location

Airport or City:

Trip Planner

Search our weather history database for the weather conditions in past years. The results will help you decide how hot, cold, wet, or windy it might be!

Date:

Astronomy

Dec. 06, 2012 Rise Set
Actual Time 5:47 AM CST 5:19 PM CST
Civil Twilight 5:24 AM CST 5:42 PM CST
Nautical Twilight 4:58 AM CST 6:08 PM CST
Astronomical Twilight 4:32 AM CST 6:34 PM CST
Moon No Moon Rise 11:40 AM CST (12/6)
Length of Visible Light 12h 17m
Length of Day
11h 31m
Waning Gibbous, 49% of the Moon is Illuminated
Dec 6
Waning Gibbous
Dec 13
New
Dec 19
First Quarter
Dec 28
Full
Jan 4
Last Quarter

Hourly Weather History & Observations

Time (CST) Temp. Heat Index Dew Point Humidity Pressure Visibility Wind Dir Wind Speed Gust Speed Precip Events Conditions
6:00 AM 68 °F - 66 °F 92% 29.85 in 12 mi ENE 4.6 mph - -   Clear
6:00 AM 68.0 °F - 66.2 °F 94% 29.83 in - ENE 4.6 mph - N/A   Clear
7:00 AM 75.2 °F - 68.0 °F 78% 29.86 in - ENE 8.1 mph - N/A   Clear
8:00 AM 78.8 °F - 66.2 °F 65% 29.88 in - WSW 3.5 mph - N/A   Clear
9:00 AM 82 °F - 67 °F 52% 29.89 in 12 mi WSW 4.6 mph - -   Clear
9:00 AM 82.4 °F 85.4 °F 68.0 °F 62% 29.88 in - WSW 4.6 mph - N/A   Clear
10:00 AM 84.2 °F 86.6 °F 66.2 °F 55% 29.86 in - South 5.8 mph - N/A   Clear
11:00 AM 87.8 °F 90.4 °F 66.2 °F 49% 29.84 in - NW 5.8 mph - N/A   Clear
12:00 PM 88 °F - 65 °F 37% 29.82 in 12 mi NW 4.6 mph - -   Scattered Clouds
12:00 PM 87.8 °F 89.4 °F 64.4 °F 46% 29.81 in 6.2 mi NW 4.6 mph - N/A   Scattered Clouds
1:00 PM 89.6 °F 89.5 °F 60.8 °F 38% 29.78 in 6.2 mi ESE 11.5 mph - N/A   Scattered Clouds
2:00 PM 87.8 °F 88.5 °F 62.6 °F 43% 29.76 in 6.2 mi ESE 11.5 mph - N/A   Partly Cloudy
3:00 PM 87.8 °F 88.5 °F 62.6 °F 43% 29.74 in 6.2 mi East 9.2 mph - N/A   Partly Cloudy
4:00 PM 86.0 °F 86.6 °F 62.6 °F 45% 29.75 in 6.2 mi East 11.5 mph - N/A   Partly Cloudy
5:00 PM 84.2 °F 85.0 °F 62.6 °F 48% 29.76 in 6.2 mi East 8.1 mph - N/A   Partly Cloudy
6:00 PM 81 °F - 65 °F 50% 29.80 in 12 mi NE 8.1 mph - -   Scattered Clouds
6:00 PM 80.6 °F 82.7 °F 66.2 °F 61% 29.78 in 6.2 mi NE 8.1 mph - N/A   Partly Cloudy
7:00 PM 78.8 °F - 64.4 °F 61% 29.80 in 6.2 mi SSE 2.3 mph - N/A   Partly Cloudy
8:00 PM 75.2 °F - 66.2 °F 73% 29.82 in 6.2 mi South 3.5 mph - N/A   Partly Cloudy